sat.trackr.live / text

‹ back to catalog

STARLINK-3395

NORAD 51130 · 2022-005AC

PAYLOAD ACTIVE UNKNOWN

§ Identity

Operator
Country
US
Launch date
2022-01-19
Launch site
AFETR
Launch vehicle
Mass (kg)
RCS (m²)

Purposes: comms

External: N2YO · Heavens-Above · Gunter

§ Orbital elements

Epoch: 2026-05-25T04:29:17.913696Z

Period
95.44 min
Inclination
53.2130°
Eccentricity
0.0001361
Mean motion
15.08835265 rev/d
Perigee alt
538.8 km
Apogee alt
540.7 km
Semi-major
6,917.9 km
B*
4.2613e-5
RAAN
315.7113°
Arg perigee
89.1876°
Mean anomaly
270.9271°
Rev number
24,027

§ Raw data

STARLINK-33951 51130U 22005AC  26145.18701289  .00000390  00000+0  42613-4 0  99942 51130  53.2130 315.7113 0001361  89.1876 270.9271 15.08835265240273

JSON: /api/v1/satellites/51130 · /tle

For live sub-satellite position, see the globe view (requires WebGL).

§ Visibility from observer

Set your observer location to see the next 7 days of passes ≥ 10°. The values pass through the URL so the page stays shareable.

No JS? Fill the form by hand. The geolocation button needs JavaScript.